| time (UTC) | temp F | wind direction | speed knots | gust knots | rain 1hr in | rain 24hr in | rain mn in | humidity % | barometer mb |
| 20260506045116 | 67 | 349 | 7.0 | 8.7 | 0.00 | 0.02 | 0.02 | 74 | 1009.8 |
| 20260506044614 | 68 | 2 | 2.6 | 5.2 | 0.00 | 0.02 | 0.02 | 73 | 1009.8 |
| 20260506044110 | 67 | 355 | 3.5 | 5.2 | 0.00 | 0.02 | 0.02 | 74 | 1009.7 |
| 20260506043607 | 68 | 2 | 2.6 | 9.6 | 0.00 | 0.02 | 0.02 | 74 | 1009.7 |
| 20260506043106 | 68 | 339 | 6.1 | 7.8 | 0.00 | 0.02 | 0.02 | 74 | 1009.8 |
| 20260506042605 | 69 | 328 | 7.8 | 9.6 | 0.00 | 0.02 | 0.02 | 72 | 1009.5 |
| 20260506042102 | 70 | 354 | 2.6 | 4.3 | 0.00 | 0.02 | 0.02 | 73 | 1009.5 |
| 20260506041601 | 70 | 359 | 5.2 | 7.0 | 0.00 | 0.02 | 0.02 | 72 | 1009.3 |
| 20260506041057 | 70 | 14 | 2.6 | 6.1 | 0.00 | 0.02 | 0.02 | 72 | 1009.2 |
| 20260506040555 | 70 | 7 | 5.2 | 7.8 | 0.00 | 0.02 | 0.02 | 72 | 1009.1 |
| 20260506040051 | 71 | 14 | 6.1 | 9.6 | 0.00 | 0.02 | 0.02 | 72 | 1009.0 |
| 20260506035548 | 71 | 342 | 4.3 | 7.0 | 0.00 | 0.02 | 0.02 | 72 | 1008.8 |
| 20260506035044 | 71 | 330 | 7.0 | 11.3 | 0.00 | 0.02 | 0.02 | 72 | 1009.0 |
| 20260506034542 | 72 | 347 | 7.8 | 12.2 | 0.00 | 0.02 | 0.02 | 72 | 1009.1 |
| 20260506034039 | 72 | 356 | 2.6 | 5.2 | 0.00 | 0.02 | 0.02 | 72 | 1008.8 |
| 20260506033536 | 72 | 342 | 4.3 | 11.3 | 0.00 | 0.02 | 0.02 | 72 | 1008.7 |
| 20260506033033 | 72 | 36 | 4.3 | 8.7 | 0.00 | 0.02 | 0.02 | 72 | 1008.6 |
| 20260506032530 | 72 | 357 | 7.0 | 7.8 | 0.00 | 0.02 | 0.02 | 71 | 1008.7 |
| 20260506032027 | 73 | 13 | 4.3 | 7.0 | 0.00 | 0.02 | 0.02 | 71 | 1008.6 |
| 20260506031525 | 73 | 12 | 4.3 | 7.8 | 0.00 | 0.02 | 0.02 | 71 | 1008.4 |
| 20260506031021 | 73 | 338 | 9.6 | 12.2 | 0.00 | 0.02 | 0.02 | 70 | 1008.3 |
| 20260506030520 | 74 | 14 | 5.2 | 6.1 | 0.00 | 0.02 | 0.02 | 69 | 1008.4 |
| 20260506030016 | 74 | 336 | 6.1 | 9.6 | 0.00 | 0.02 | 0.02 | 68 | 1008.3 |
| 20260506025513 | 74 | 350 | 5.2 | 9.6 | 0.00 | 0.02 | 0.02 | 67 | 1008.1 |
| 20260506025009 | 75 | 341 | 7.8 | 11.3 | 0.00 | 0.02 | 0.02 | 67 | 1007.8 |
| 20260506024507 | 75 | 18 | 1.7 | 5.2 | 0.00 | 0.02 | 0.02 | 67 | 1008.0 |
| 20260506024002 | 75 | 315 | 2.6 | 7.0 | 0.00 | 0.02 | 0.02 | 67 | 1007.7 |
| 20260506023459 | 75 | 311 | 5.2 | 11.3 | 0.00 | 0.02 | 0.02 | 67 | 1007.9 |
| 20260506022956 | 75 | 349 | 5.2 | 8.7 | 0.00 | 0.02 | 0.02 | 67 | 1007.2 |
| 20260506022454 | 75 | 344 | 1.7 | 7.8 | 0.00 | 0.02 | 0.02 | 67 | 1007.2 |
| 20260506021951 | 75 | 28 | 4.3 | 7.0 | 0.00 | 0.02 | 0.02 | 67 | 1007.1 |
| 20260506021449 | 75 | 33 | 2.6 | 7.0 | 0.00 | 0.02 | 0.02 | 67 | 1006.7 |
| 20260506020946 | 75 | 25 | 3.5 | 8.7 | 0.00 | 0.02 | 0.02 | 67 | 1006.9 |
| 20260506020443 | 76 | 16 | 1.7 | 4.3 | 0.00 | 0.02 | 0.02 | 67 | 1006.8 |
| 20260506015940 | 76 | 341 | 1.7 | 6.1 | 0.00 | 0.02 | 0.02 | 67 | 1006.7 |
| 20260506015438 | 76 | 289 | 4.3 | 7.0 | 0.00 | 0.02 | 0.02 | 67 | 1006.5 |
| 20260506014934 | 77 | 339 | 3.5 | 7.0 | 0.00 | 0.02 | 0.02 | 68 | 1006.5 |
| 20260506014431 | 77 | 3 | 2.6 | 5.2 | 0.00 | 0.02 | 0.02 | 68 | 1006.6 |
| 20260506013928 | 77 | 330 | 2.6 | 4.3 | 0.00 | 0.02 | 0.02 | 67 | 1006.4 |
| 20260506013426 | 77 | 2 | 0.9 | 6.1 | 0.00 | 0.02 | 0.02 | 67 | 1006.0 |
| 20260506012922 | 77 | 335 | 4.3 | 6.1 | 0.00 | 0.02 | 0.02 | 67 | 1006.0 |
| 20260506012418 | 78 | 319 | 8.7 | 12.2 | 0.00 | 0.02 | 0.02 | 67 | 1006.2 |
| 20260506011916 | 78 | 272 | 2.6 | 7.0 | 0.00 | 0.02 | 0.02 | 66 | 1006.2 |
| 20260506011413 | 79 | 341 | 3.5 | 8.7 | 0.00 | 0.02 | 0.02 | 66 | 1006.2 |
| 20260506010910 | 79 | 343 | 4.3 | 7.0 | 0.00 | 0.02 | 0.02 | 67 | 1006.0 |
| 20260506010408 | 79 | 343 | 2.6 | 2.6 | 0.00 | 0.02 | 0.02 | 67 | 1006.1 |
| 20260506005904 | 79 | 352 | 0.9 | 1.7 | 0.00 | 0.02 | 0.02 | 67 | 1005.7 |
| 20260506005402 | 79 | 334 | 5.2 | 7.0 | 0.00 | 0.02 | 0.02 | 67 | 1005.6 |
| 20260506004857 | 79 | 9 | 1.7 | 6.1 | 0.00 | 0.02 | 0.02 | 69 | 1005.3 |
| 20260506004355 | 78 | 348 | 2.6 | 7.8 | 0.00 | 0.02 | 0.02 | 69 | 1005.4 |
| 20260506003851 | 79 | 343 | 2.6 | 4.3 | 0.00 | 0.02 | 0.02 | 71 | 1005.4 |
| 20260506003347 | 79 | 12 | 2.6 | 6.1 | 0.00 | 0.02 | 0.02 | 71 | 1005.6 |
| 20260506002844 | 79 | 348 | 4.3 | 7.0 | 0.00 | 0.02 | 0.02 | 71 | 1005.6 |
| 20260506002340 | 78 | 3 | 0.9 | 1.7 | 0.00 | 0.02 | 0.02 | 74 | 1005.9 |
| 20260506001836 | 78 | 340 | 2.6 | 4.3 | 0.00 | 0.02 | 0.02 | 72 | 1005.6 |
| 20260506001333 | 78 | 318 | 3.5 | 6.1 | 0.05 | 0.02 | 0.02 | 72 | 1005.6 |
| 20260506000830 | 80 | 8 | 7.8 | 11.3 | 0.12 | 0.02 | 0.02 | 68 | 1005.6 |
| 20260506000330 | 85 | 300 | 2.6 | 5.2 | 0.00 | 0.00 | 0.00 | 59 | 1005.1 |
| 20260505235825 | 84 | 342 | 5.2 | 9.6 | 0.00 | 0.00 | 0.00 | 60 | 1005.0 |
| 20260505235322 | 84 | 302 | 4.3 | 8.7 | 0.00 | 0.00 | 0.00 | 70 | 1004.6 |
| 20260505234819 | 84 | 294 | 2.6 | 6.1 | 0.00 | 0.00 | 0.00 | 69 | 1004.5 |
| 20260505234317 | 85 | 209 | 4.3 | 7.8 | 0.00 | 0.00 | 0.00 | 69 | 1004.2 |
| 20260505233813 | 85 | 235 | 4.3 | 12.2 | 0.00 | 0.00 | 0.00 | 69 | 1004.3 |
| 20260505233311 | 86 | 193 | 7.8 | 7.8 | 0.00 | 0.00 | 0.00 | 68 | 1004.8 |
| 20260505232808 | 86 | 184 | 7.0 | 8.7 | 0.00 | 0.00 | 0.00 | 68 | 1004.5 |
| 20260505232306 | 86 | 188 | 7.0 | 11.3 | 0.00 | 0.00 | 0.00 | 67 | 1004.3 |
| 20260505231802 | 87 | 174 | 6.1 | 11.3 | 0.00 | 0.00 | 0.00 | 66 | 1004.4 |
| 20260505231301 | 87 | 176 | 4.3 | 6.1 | 0.00 | 0.00 | 0.00 | 64 | 1004.4 |
| 20260505230758 | 87 | 134 | 6.1 | 9.6 | 0.00 | 0.00 | 0.00 | 65 | 1004.3 |
| 20260505230255 | 88 | 174 | 7.8 | 11.3 | 0.00 | 0.00 | 0.00 | 63 | 1004.4 |
| 20260505225752 | 88 | 184 | 4.3 | 11.3 | 0.00 | 0.00 | 0.00 | 62 | 1004.3 |
| 20260505225249 | 89 | 146 | 4.3 | 8.7 | 0.00 | 0.00 | 0.00 | 61 | 1004.1 |
| 20260505224744 | 89 | 178 | 5.2 | 8.7 | 0.00 | 0.00 | 0.00 | 60 | 1003.9 |
| 20260505224242 | 89 | 191 | 4.3 | 7.8 | 0.00 | 0.00 | 0.00 | 61 | 1004.0 |
| 20260505223739 | 88 | 195 | 4.3 | 8.7 | 0.00 | 0.00 | 0.00 | 61 | 1003.9 |
| 20260505223235 | 89 | 171 | 6.1 | 8.7 | 0.00 | 0.00 | 0.00 | 62 | 1004.0 |
| 20260505222731 | 90 | 145 | 6.1 | 12.2 | 0.00 | 0.00 | 0.00 | 60 | 1004.0 |
| 20260505222228 | 89 | 223 | 2.6 | 7.8 | 0.00 | 0.00 | 0.00 | 60 | 1004.0 |
| 20260505221725 | 90 | 177 | 7.0 | 7.8 | 0.00 | 0.00 | 0.00 | 56 | 1004.0 |
| 20260505221221 | 90 | 237 | 4.3 | 6.1 | 0.00 | 0.00 | 0.00 | 56 | 1004.0 |
| 20260505220718 | 89 | 237 | 6.1 | 12.2 | 0.00 | 0.00 | 0.00 | 56 | 1004.0 |
| 20260505220216 | 90 | 235 | 4.3 | 9.6 | 0.00 | 0.00 | 0.00 | 56 | 1003.9 |
| 20260505215714 | 89 | 47 | 2.6 | 6.1 | 0.00 | 0.00 | 0.00 | 57 | 1004.1 |
| 20260505215212 | 90 | 232 | 4.3 | 11.3 | 0.00 | 0.00 | 0.00 | 56 | 1004.1 |
| 20260505214709 | 89 | 229 | 5.2 | 11.3 | 0.00 | 0.00 | 0.00 | 54 | 1003.9 |
| 20260505214207 | 90 | 267 | 5.2 | 7.0 | 0.00 | 0.00 | 0.00 | 56 | 1004.0 |
| 20260505213704 | 89 | 286 | 4.3 | 5.2 | 0.00 | 0.00 | 0.00 | 54 | 1004.1 |
| 20260505213201 | 90 | 298 | 3.5 | 12.2 | 0.00 | 0.00 | 0.00 | 54 | 1004.3 |
| 20260505212656 | 89 | 282 | 5.2 | 8.7 | 0.00 | 0.00 | 0.00 | 54 | 1004.4 |
| 20260505212154 | 89 | 259 | 2.6 | 7.8 | 0.00 | 0.00 | 0.00 | 53 | 1004.2 |
| 20260505211651 | 90 | 214 | 5.2 | 7.0 | 0.00 | 0.00 | 0.00 | 53 | 1004.5 |
| 20260505211148 | 89 | 205 | 5.2 | 12.2 | 0.00 | 0.00 | 0.00 | 53 | 1004.4 |
| 20260505210645 | 89 | 237 | 4.3 | 12.2 | 0.00 | 0.00 | 0.00 | 54 | 1004.3 |
| 20260505210142 | 89 | 271 | 7.8 | 9.6 | 0.00 | 0.00 | 0.00 | 53 | 1004.6 |
| 20260505205639 | 89 | 223 | 6.1 | 7.8 | 0.00 | 0.00 | 0.00 | 56 | 1004.6 |
| 20260505205137 | 89 | 180 | 4.3 | 7.0 | 0.00 | 0.00 | 0.00 | 55 | 1004.4 |
| 20260505204633 | 88 | 246 | 5.2 | 9.6 | 0.00 | 0.00 | 0.00 | 55 | 1004.8 |
| 20260505204132 | 88 | 258 | 6.1 | 12.2 | 0.00 | 0.00 | 0.00 | 57 | 1005.0 |
| 20260505203628 | 88 | 217 | 9.6 | 12.2 | 0.00 | 0.00 | 0.00 | 56 | 1004.8 |
| 20260505203125 | 88 | 250 | 7.8 | 11.3 | 0.00 | 0.00 | 0.00 | 56 | 1004.7 |
| 20260505202621 | 89 | 218 | 4.3 | 7.8 | 0.00 | 0.00 | 0.00 | 54 | 1004.9 |
| 20260505202117 | 88 | 240 | 7.8 | 13.0 | 0.00 | 0.00 | 0.00 | 56 | 1004.9 |
| 20260505201613 | 88 | 250 | 8.7 | 15.6 | 0.00 | 0.00 | 0.00 | 57 | 1004.9 |
| 20260505201111 | 87 | 220 | 7.8 | 9.6 | 0.00 | 0.00 | 0.00 | 57 | 1005.2 |
| 20260505200609 | 88 | 240 | 7.8 | 13.9 | 0.00 | 0.00 | 0.00 | 58 | 1004.9 |
| 20260505200106 | 88 | 236 | 10.4 | 14.8 | 0.00 | 0.00 | 0.00 | 59 | 1005.0 |
| 20260505195602 | 87 | 241 | 7.0 | 13.9 | 0.00 | 0.00 | 0.00 | 60 | 1005.1 |
| 20260505195100 | 86 | 208 | 8.7 | 12.2 | 0.00 | 0.00 | 0.00 | 62 | 1004.9 |
| 20260505194556 | 86 | 260 | 7.0 | 11.3 | 0.00 | 0.00 | 0.00 | 61 | 1005.1 |
| 20260505194052 | 86 | 212 | 7.8 | 13.9 | 0.00 | 0.00 | 0.00 | 62 | 1005.3 |
| 20260505193549 | 85 | 253 | 2.6 | 13.9 | 0.00 | 0.00 | 0.00 | 63 | 1005.3 |
| 20260505193047 | 87 | 263 | 11.3 | 15.6 | 0.00 | 0.00 | 0.00 | 61 | 1005.3 |
| 20260505192545 | 86 | 183 | 6.1 | 8.7 | 0.00 | 0.00 | 0.00 | 62 | 1005.2 |
| 20260505192042 | 86 | 169 | 6.1 | 12.2 | 0.00 | 0.00 | 0.00 | 62 | 1005.2 |
| 20260505191540 | 85 | 235 | 5.2 | 7.8 | 0.00 | 0.00 | 0.00 | 63 | 1005.2 |
| 20260505191038 | 85 | 195 | 6.1 | 8.7 | 0.00 | 0.00 | 0.00 | 63 | 1005.3 |
| 20260505190532 | 85 | 195 | 10.4 | 13.0 | 0.00 | 0.00 | 0.00 | 65 | 1005.2 |
| 20260505190029 | 85 | 238 | 6.1 | 9.6 | 0.00 | 0.00 | 0.00 | 64 | 1005.3 |
| 20260505185526 | 85 | 230 | 9.6 | 13.0 | 0.00 | 0.00 | 0.00 | 65 | 1005.7 |
| 20260505185022 | 84 | 244 | 5.2 | 9.6 | 0.00 | 0.00 | 0.00 | 66 | 1005.6 |
| 20260505184519 | 84 | 235 | 7.0 | 12.2 | 0.00 | 0.00 | 0.00 | 66 | 1005.7 |
| 20260505184016 | 84 | 175 | 10.4 | 13.0 | 0.00 | 0.00 | 0.00 | 66 | 1005.6 |
| 20260505183513 | 83 | 205 | 8.7 | 12.2 | 0.00 | 0.00 | 0.00 | 67 | 1005.9 |
| 20260505183010 | 83 | 218 | 10.4 | 12.2 | 0.00 | 0.00 | 0.00 | 68 | 1005.8 |
| 20260505182506 | 82 | 206 | 10.4 | 13.9 | 0.00 | 0.00 | 0.00 | 68 | 1005.8 |
| 20260505182003 | 83 | 204 | 7.0 | 9.6 | 0.00 | 0.00 | 0.00 | 68 | 1005.9 |
| 20260505181459 | 83 | 245 | 6.1 | 9.6 | 0.00 | 0.00 | 0.00 | 68 | 1005.9 |
| 20260505180956 | 83 | 212 | 7.8 | 13.0 | 0.00 | 0.00 | 0.00 | 68 | 1005.8 |
| 20260505180452 | 82 | 211 | 7.8 | 13.0 | 0.00 | 0.00 | 0.00 | 69 | 1006.0 |
| 20260505175949 | 82 | 193 | 7.0 | 12.2 | 0.00 | 0.00 | 0.00 | 69 | 1005.9 |
| 20260505175445 | 82 | 167 | 7.8 | 13.9 | 0.00 | 0.00 | 0.00 | 70 | 1005.8 |
| 20260505174942 | 81 | 202 | 5.2 | 9.6 | 0.00 | 0.00 | 0.00 | 70 | 1005.8 |
| 20260505174439 | 81 | 187 | 7.8 | 13.0 | 0.00 | 0.00 | 0.00 | 71 | 1005.9 |
| 20260505173936 | 81 | 204 | 9.6 | 13.9 | 0.00 | 0.00 | 0.00 | 71 | 1005.9 |
| 20260505173432 | 81 | 210 | 7.8 | 11.3 | 0.00 | 0.00 | 0.00 | 69 | 1006.1 |
| 20260505172929 | 81 | 191 | 7.0 | 13.9 | 0.00 | 0.00 | 0.00 | 70 | 1006.0 |
| 20260505172428 | 81 | 265 | 9.6 | 15.6 | 0.00 | 0.00 | 0.00 | 70 | 1006.0 |
| 20260505171926 | 81 | 249 | 6.1 | 13.9 | 0.00 | 0.00 | 0.00 | 70 | 1006.0 |
| 20260505171424 | 81 | 251 | 6.1 | 7.8 | 0.00 | 0.00 | 0.00 | 69 | 1005.8 |
| 20260505170920 | 81 | 212 | 7.0 | 11.3 | 0.00 | 0.00 | 0.00 | 69 | 1005.9 |
| 20260505170417 | 81 | 212 | 13.0 | 15.6 | 0.00 | 0.00 | 0.00 | 70 | 1006.1 |
| 20260505165913 | 80 | 236 | 8.7 | 12.2 | 0.00 | 0.00 | 0.00 | 70 | 1006.1 |
| 20260505165409 | 80 | 230 | 10.4 | 13.0 | 0.00 | 0.00 | 0.00 | 70 | 1006.1 |
| 20260505164904 | 80 | 203 | 9.6 | 13.0 | 0.00 | 0.00 | 0.00 | 71 | 1006.1 |
| 20260505164401 | 80 | 219 | 4.3 | 7.8 | 0.00 | 0.00 | 0.00 | 72 | 1006.0 |
| 20260505163859 | 79 | 194 | 7.0 | 11.3 | 0.00 | 0.00 | 0.00 | 72 | 1006.1 |
| 20260505163358 | 79 | 207 | 10.4 | 18.2 | 0.00 | 0.00 | 0.00 | 72 | 1006.1 |
| 20260505162856 | 78 | 192 | 8.7 | 13.0 | 0.00 | 0.00 | 0.00 | 74 | 1005.9 |
| 20260505162352 | 78 | 224 | 13.0 | 18.2 | 0.00 | 0.00 | 0.00 | 74 | 1005.8 |
| 20260505161849 | 78 | 230 | 6.1 | 15.6 | 0.00 | 0.00 | 0.00 | 74 | 1005.9 |
| 20260505161346 | 78 | 207 | 11.3 | 13.0 | 0.00 | 0.00 | 0.00 | 72 | 1005.8 |
| 20260505160843 | 79 | 221 | 11.3 | 13.9 | 0.00 | 0.00 | 0.00 | 72 | 1005.7 |
| 20260505160341 | 78 | 213 | 7.8 | 17.4 | 0.00 | 0.00 | 0.00 | 73 | 1005.6 |
| 20260505153320 | 77 | 239 | 8.7 | 14.8 | 0.00 | 0.00 | 0.00 | 75 | 1006.0 |
| 20260505152817 | 77 | 245 | 8.7 | 13.9 | 0.00 | 0.00 | 0.00 | 76 | 1005.9 |
| 20260505152314 | 77 | 208 | 10.4 | 15.6 | 0.00 | 0.00 | 0.00 | 76 | 1006.1 |
| 20260505151808 | 77 | 182 | 6.1 | 13.9 | 0.00 | 0.00 | 0.00 | 76 | 1006.2 |
| 20260505151305 | 76 | 228 | 3.5 | 13.0 | 0.00 | 0.00 | 0.00 | 77 | 1006.4 |
| 20260505150802 | 76 | 190 | 11.3 | 13.9 | 0.00 | 0.00 | 0.00 | 77 | 1006.2 |
| 20260505150259 | 76 | 241 | 9.6 | 12.2 | 0.00 | 0.00 | 0.00 | 77 | 1006.3 |
| 20260505140224 | 74 | 228 | 7.0 | 7.8 | 0.00 | 0.00 | 0.00 | 81 | 1006.2 |
| 20260505130147 | 72 | 237 | 5.2 | 7.0 | 0.00 | 0.00 | 0.00 | 84 | 1005.3 |
| 20260505124637 | 72 | 229 | 7.8 | 11.3 | 0.00 | 0.00 | 0.00 | 84 | 1005.6 |
| 20260505124134 | 72 | 208 | 2.6 | 8.7 | 0.00 | 0.00 | 0.00 | 84 | 1005.7 |
| 20260505123630 | 72 | 181 | 6.1 | 7.8 | 0.00 | 0.00 | 0.00 | 84 | 1005.3 |
| 20260505123127 | 71 | 229 | 7.8 | 9.6 | 0.00 | 0.00 | 0.00 | 85 | 1005.3 |
| 20260505122623 | 71 | 173 | 6.1 | 11.3 | 0.00 | 0.00 | 0.00 | 85 | 1005.0 |
| 20260505122120 | 71 | 170 | 4.3 | 13.0 | 0.00 | 0.00 | 0.00 | 85 | 1005.0 |
| 20260505121611 | 71 | 238 | 5.2 | 6.1 | 0.00 | 0.00 | 0.00 | 85 | 1004.8 |
| 20260505121108 | 71 | 165 | 4.3 | 9.6 | 0.00 | 0.00 | 0.00 | 85 | 1005.0 |
| 20260505120604 | 71 | 201 | 6.1 | 8.7 | 0.00 | 0.00 | 0.00 | 85 | 1004.9 |
| 20260505120100 | 71 | 192 | 6.1 | 8.7 | 0.00 | 0.00 | 0.00 | 85 | 1005.2 |
| 20260505115554 | 71 | 236 | 4.3 | 6.1 | 0.00 | 0.00 | 0.00 | 85 | 1005.0 |
| 20260505115052 | 71 | 157 | 9.6 | 12.2 | 0.00 | 0.00 | 0.00 | 85 | 1004.8 |
| 20260505114549 | 71 | 191 | 6.1 | 7.8 | 0.00 | 0.00 | 0.00 | 85 | 1004.9 |
| 20260505114045 | 71 | 209 | 4.3 | 8.7 | 0.00 | 0.00 | 0.00 | 85 | 1004.9 |
| 20260505113542 | 71 | 172 | 5.2 | 9.6 | 0.00 | 0.00 | 0.00 | 85 | 1005.1 |
| 20260505113038 | 71 | 205 | 6.1 | 9.6 | 0.00 | 0.00 | 0.00 | 85 | 1005.0 |
| 20260505112534 | 71 | 195 | 4.3 | 7.8 | 0.00 | 0.00 | 0.00 | 85 | 1005.0 |
| 20260505112033 | 71 | 140 | 5.2 | 7.0 | 0.00 | 0.00 | 0.00 | 85 | 1004.9 |
| 20260505111526 | 71 | 211 | 5.2 | 7.8 | 0.00 | 0.00 | 0.00 | 85 | 1004.9 |
| 20260505111022 | 71 | 210 | 7.8 | 11.3 | 0.00 | 0.00 | 0.00 | 85 | 1005.0 |
| 20260505110514 | 71 | 206 | 6.1 | 8.7 | 0.00 | 0.00 | 0.00 | 85 | 1005.0 |
| 20260505101946 | 71 | 195 | 6.1 | 11.3 | 0.00 | 0.00 | 0.00 | 85 | 1004.9 |
| 20260505101444 | 71 | 197 | 3.5 | 8.7 | 0.00 | 0.00 | 0.00 | 85 | 1005.0 |
| 20260505100940 | 71 | 211 | 5.2 | 7.8 | 0.00 | 0.00 | 0.00 | 84 | 1005.0 |
| 20260505100438 | 71 | 197 | 9.6 | 12.2 | 0.00 | 0.00 | 0.00 | 84 | 1004.9 |
| 20260505095933 | 71 | 213 | 5.2 | 7.8 | 0.00 | 0.00 | 0.00 | 84 | 1005.1 |
| 20260505095430 | 71 | 223 | 6.1 | 7.0 | 0.00 | 0.00 | 0.00 | 84 | 1005.1 |
| 20260505094926 | 71 | 218 | 6.1 | 11.3 | 0.00 | 0.00 | 0.00 | 84 | 1005.0 |
| 20260505094424 | 71 | 165 | 6.1 | 11.3 | 0.00 | 0.00 | 0.00 | 84 | 1005.1 |
| 20260505093920 | 71 | 199 | 11.3 | 13.9 | 0.00 | 0.00 | 0.00 | 84 | 1005.0 |
| 20260505093416 | 71 | 200 | 4.3 | 12.2 | 0.00 | 0.00 | 0.00 | 84 | 1005.1 |
| 20260505092914 | 71 | 201 | 7.0 | 8.7 | 0.00 | 0.00 | 0.00 | 84 | 1005.1 |
| 20260505092412 | 71 | 217 | 9.6 | 13.0 | 0.00 | 0.00 | 0.00 | 84 | 1005.4 |
| 20260505091909 | 71 | 174 | 5.2 | 8.7 | 0.00 | 0.00 | 0.00 | 84 | 1005.3 |
| 20260505091406 | 71 | 186 | 8.7 | 18.2 | 0.00 | 0.00 | 0.00 | 84 | 1005.3 |
| 20260505090904 | 71 | 187 | 7.8 | 13.0 | 0.00 | 0.00 | 0.00 | 84 | 1005.3 |
| 20260505090402 | 71 | 174 | 6.1 | 12.2 | 0.00 | 0.00 | 0.00 | 85 | 1005.4 |
| 20260505085859 | 71 | 209 | 3.5 | 7.0 | 0.00 | 0.00 | 0.00 | 84 | 1005.3 |
| 20260505085357 | 71 | 215 | 5.2 | 7.8 | 0.00 | 0.00 | 0.00 | 85 | 1005.6 |
| 20260505084855 | 71 | 230 | 9.6 | 13.0 | 0.00 | 0.00 | 0.00 | 84 | 1005.3 |
| 20260505084353 | 71 | 205 | 8.7 | 11.3 | 0.00 | 0.00 | 0.00 | 84 | 1005.1 |
| 20260505083850 | 71 | 211 | 6.1 | 12.2 | 0.00 | 0.00 | 0.00 | 85 | 1005.4 |
| 20260505083348 | 71 | 163 | 4.3 | 8.7 | 0.00 | 0.00 | 0.00 | 85 | 1005.3 |
| 20260505082844 | 71 | 236 | 4.3 | 11.3 | 0.00 | 0.00 | 0.00 | 85 | 1005.4 |
| 20260505082340 | 71 | 212 | 5.2 | 11.3 | 0.00 | 0.00 | 0.00 | 84 | 1005.7 |
| 20260505081837 | 71 | 179 | 6.1 | 13.0 | 0.00 | 0.00 | 0.00 | 84 | 1005.6 |
| 20260505081333 | 71 | 209 | 6.1 | 7.8 | 0.00 | 0.00 | 0.00 | 84 | 1005.6 |
| 20260505080830 | 71 | 196 | 10.4 | 13.0 | 0.00 | 0.00 | 0.00 | 84 | 1005.7 |
| 20260505080326 | 71 | 200 | 9.6 | 13.0 | 0.00 | 0.00 | 0.00 | 84 | 1005.9 |
| 20260505075822 | 71 | 188 | 8.7 | 11.3 | 0.00 | 0.00 | 0.00 | 84 | 1005.6 |
| 20260505075319 | 71 | 181 | 2.6 | 7.0 | 0.00 | 0.00 | 0.00 | 84 | 1005.7 |
| 20260505074816 | 71 | 166 | 5.2 | 13.0 | 0.00 | 0.00 | 0.00 | 84 | 1005.8 |
| 20260505074313 | 71 | 106 | 2.6 | 9.6 | 0.00 | 0.00 | 0.00 | 83 | 1006.2 |
| 20260505073811 | 71 | 204 | 7.8 | 13.0 | 0.00 | 0.00 | 0.00 | 83 | 1005.9 |
| 20260505073309 | 71 | 180 | 6.1 | 8.7 | 0.00 | 0.00 | 0.00 | 83 | 1006.0 |
| 20260505072805 | 71 | 201 | 12.2 | 17.4 | 0.00 | 0.00 | 0.00 | 83 | 1006.6 |
| 20260505072301 | 71 | 216 | 5.2 | 11.3 | 0.00 | 0.00 | 0.00 | 82 | 1006.4 |
| 20260505071757 | 72 | 206 | 8.7 | 13.0 | 0.00 | 0.00 | 0.00 | 82 | 1006.2 |
| 20260505071254 | 72 | 158 | 13.0 | 15.6 | 0.00 | 0.00 | 0.00 | 81 | 1006.6 |
| 20260505070752 | 72 | 175 | 4.3 | 7.8 | 0.00 | 0.00 | 0.00 | 81 | 1006.6 |
| 20260505070248 | 72 | 226 | 5.2 | 7.0 | 0.00 | 0.00 | 0.00 | 81 | 1006.4 |
| 20260505065743 | 72 | 191 | 7.0 | 7.8 | 0.00 | 0.00 | 0.00 | 81 | 1006.5 |
| 20260505065240 | 72 | 184 | 6.1 | 11.3 | 0.00 | 0.00 | 0.00 | 80 | 1006.5 |
| 20260505064737 | 72 | 186 | 10.4 | 12.2 | 0.00 | 0.00 | 0.00 | 80 | 1006.7 |
| 20260505064235 | 72 | 194 | 7.8 | 9.6 | 0.00 | 0.00 | 0.00 | 80 | 1006.6 |
| 20260505063732 | 73 | 182 | 4.3 | 7.0 | 0.00 | 0.00 | 0.00 | 79 | 1006.8 |
| 20260505063229 | 73 | 167 | 4.3 | 8.7 | 0.00 | 0.00 | 0.00 | 79 | 1006.8 |
| 20260505062725 | 73 | 182 | 7.8 | 11.3 | 0.00 | 0.00 | 0.00 | 79 | 1006.9 |
| 20260505062223 | 73 | 214 | 5.2 | 9.6 | 0.00 | 0.00 | 0.00 | 79 | 1006.7 |
| 20260505061719 | 73 | 198 | 7.0 | 11.3 | 0.00 | 0.00 | 0.00 | 78 | 1006.8 |
| 20260505061218 | 73 | 195 | 5.2 | 9.6 | 0.00 | 0.00 | 0.00 | 78 | 1006.8 |
| 20260505060715 | 73 | 179 | 5.2 | 7.0 | 0.00 | 0.00 | 0.00 | 78 | 1006.8 |
| 20260505060211 | 73 | 196 | 12.2 | 15.6 | 0.00 | 0.00 | 0.00 | 77 | 1007.0 |
| 20260505055707 | 73 | 142 | 5.2 | 7.0 | 0.00 | 0.00 | 0.00 | 77 | 1006.7 |
| 20260505055203 | 73 | 90 | 4.3 | 8.7 | 0.00 | 0.00 | 0.00 | 77 | 1006.8 |
| 20260505054701 | 73 | 185 | 6.1 | 8.7 | 0.00 | 0.00 | 0.00 | 77 | 1006.8 |
| 20260505054159 | 73 | 154 | 7.0 | 9.6 | 0.00 | 0.00 | 0.00 | 77 | 1006.8 |
| 20260505053656 | 73 | 155 | 4.3 | 6.1 | 0.00 | 0.00 | 0.00 | 77 | 1006.9 |
| 20260505053153 | 73 | 231 | 6.1 | 8.7 | 0.00 | 0.00 | 0.00 | 77 | 1006.8 |
| 20260505052650 | 73 | 139 | 5.2 | 7.8 | 0.00 | 0.00 | 0.00 | 77 | 1007.0 |
| 20260505052147 | 73 | 200 | 4.3 | 7.8 | 0.00 | 0.00 | 0.00 | 76 | 1006.9 |
| 20260505051643 | 73 | 185 | 4.3 | 6.1 | 0.00 | 0.00 | 0.00 | 76 | 1007.0 |
| 20260505051142 | 73 | 151 | 6.1 | 11.3 | 0.00 | 0.00 | 0.00 | 76 | 1007.2 |
| 20260505050639 | 73 | 159 | 4.3 | 7.8 | 0.00 | 0.00 | 0.00 | 76 | 1007.0 |
| 20260505050138 | 73 | 187 | 7.0 | 8.7 | 0.00 | 0.00 | 0.00 | 76 | 1007.2 |